Location: Prairie Dale
(45.6972°N, 104.5033°W)
Time: 04:33:35
(UTC+00:00)

STARS - Pass Details

Date: 30 June 2022
Orbit: 620 x 637 km, 98.2° (Epoch: 13 August)

Event Time Altitude Azimuth Distance (km) Brightness Sun altitude
Rises 04:26:19 0° 32° (NNE) 2,932 ? -12.6°
Reaches altitude 10° 04:29:33 10° 58° (ENE) 2,014 ? -13.0°
Maximum altitude 04:31:52 14° 90° (E) 1,751 ? -13.2°
Enters shadow 04:32:54 13° 105° (ESE) 1,802 ? -13.3°
